Location: Shenandoah County Park
(38.9356°N, 78.4524°W)
Time: 10:53:44
(UTC-05:00)

A-11 Canister half - All Passes

Search period start: 29 January 2023 00:00
Search period end: 08 February 2023 00:00
Orbit: 1525 x 1683 km, 47.3° (Epoch: 28 January)

Date Brightness Start Highest point End Pass type
(mag) Time Alt. Az. Time Alt. Az. Time Alt. Az.
29 Jan - 05:31:07 10° SSW 05:39:10 35° SE 05:47:16 10° ENE visible
29 Jan - 07:34:08 10° WSW 07:43:28 85° NNW 07:53:00 10° ENE daylight
29 Jan - 09:40:13 10° W 09:49:20 53° N 09:58:43 10° ENE daylight
29 Jan - 11:46:15 10° WNW 11:55:41 64° NNE 12:05:26 10° E daylight
29 Jan - 13:51:27 10° WNW 14:00:54 62° SW 14:10:40 10° SE daylight
29 Jan - 15:58:55 10° W 16:04:37 17° SW 16:10:26 10° SSW daylight
30 Jan - 05:09:39 10° S 05:17:33 33° SE 05:25:28 10° ENE visible
30 Jan - 07:12:26 10° WSW 07:21:45 88° NNW 07:31:16 10° ENE daylight
30 Jan - 09:18:28 10° W 09:27:35 53° N 09:36:57 10° ENE daylight
30 Jan - 11:24:32 10° WNW 11:33:56 62° NNE 11:43:38 10° E daylight
30 Jan - 13:29:44 10° WNW 13:39:13 65° SW 13:48:59 10° SE daylight
30 Jan - 15:36:54 10° W 15:42:59 19° SW 15:49:11 10° SSW daylight
31 Jan - 04:48:11 10° S 04:55:55 31° SE 05:03:40 10° ENE visible
31 Jan - 06:50:45 10° WSW 07:00:04 89° SE 07:09:33 10° ENE visible
31 Jan - 08:56:42 10° W 09:05:49 54° N 09:15:10 10° ENE daylight
31 Jan - 11:02:49 10° WNW 11:12:10 61° NNE 11:21:50 10° E daylight
31 Jan - 13:08:02 10° WNW 13:17:31 68° SW 13:27:19 10° SE daylight
31 Jan - 15:14:57 10° W 15:21:21 20° SW 15:27:54 10° SSW daylight
01 Feb - 04:26:45 10° S 04:34:18 29° SE 04:41:51 10° ENE visible
01 Feb - 06:29:03 10° SW 06:38:22 86° SSE 06:47:50 10° ENE visible
01 Feb - 08:34:56 10° W 08:44:03 54° N 08:53:24 10° ENE daylight
01 Feb - 10:41:06 10° WNW 10:50:25 60° NNE 11:00:01 10° E daylight
01 Feb - 12:46:19 10° WNW 12:55:49 71° SW 13:05:38 10° SE daylight
01 Feb - 14:53:01 10° W 14:59:43 21° SW 15:06:33 10° S daylight
02 Feb - 04:05:19 10° S 04:12:40 27° SE 04:20:01 10° ENE visible
02 Feb - 06:07:23 10° SW 06:16:41 83° SSE 06:26:06 10° ENE visible
02 Feb - 08:13:11 10° W 08:22:18 55° N 08:31:37 10° ENE daylight
02 Feb - 10:19:23 10° WNW 10:28:40 58° NNE 10:38:13 10° E daylight
02 Feb - 12:24:37 10° WNW 12:34:07 74° SW 12:43:56 10° SE daylight
02 Feb - 14:31:07 10° W 14:38:04 23° SW 14:45:12 10° S daylight
03 Feb - 03:43:55 10° S 03:51:03 25° SE 03:58:10 10° ENE visible
03 Feb - 05:45:43 10° SW 05:55:00 81° SE 06:04:23 10° ENE visible
03 Feb - 07:51:25 10° W 08:00:32 56° NNW 08:09:51 10° ENE daylight
03 Feb - 09:57:40 10° WNW 10:06:54 57° NNE 10:16:24 10° E daylight
03 Feb - 12:02:55 10° WNW 12:12:26 77° SW 12:22:14 10° SE daylight
03 Feb - 14:09:14 10° WNW 14:16:26 24° SW 14:23:49 10° S daylight
04 Feb - 03:22:32 10° S 03:29:26 24° SE 03:36:18 10° E visible
04 Feb - 05:24:02 10° SW 05:33:19 78° SE 05:42:40 10° ENE visible
04 Feb - 07:29:40 10° W 07:38:47 56° NNW 07:48:06 10° ENE daylight
04 Feb - 09:35:57 10° WNW 09:45:09 56° NNE 09:54:36 10° E daylight
04 Feb - 11:41:13 10° WNW 11:50:43 79° SW 12:00:32 10° SE daylight
04 Feb - 13:47:22 10° WNW 13:54:47 26° SW 14:02:24 10° S daylight
05 Feb - 03:01:11 10° S 03:07:49 22° SE 03:14:25 10° E visible
05 Feb - 05:02:23 10° SW 05:11:38 75° SE 05:20:57 10° ENE visible
05 Feb - 07:07:54 10° W 07:17:02 57° NNW 07:26:20 10° ENE daylight
05 Feb - 09:14:13 10° WNW 09:23:23 55° NNE 09:32:48 10° E daylight
05 Feb - 11:19:32 10° WNW 11:29:01 82° SW 11:38:48 10° SE daylight
05 Feb - 13:25:32 10° WNW 13:33:09 27° SW 13:40:58 10° S daylight
06 Feb - 02:39:52 10° S 02:46:12 21° SE 02:52:31 10° E visible
06 Feb - 04:40:44 10° SW 04:49:58 71° SE 04:59:14 10° ENE visible
06 Feb - 06:46:09 10° W 06:55:18 58° NNW 07:04:35 10° ENE visible
06 Feb - 08:52:29 10° WNW 09:01:38 55° N 09:11:00 10° E daylight
06 Feb - 10:57:50 10° WNW 11:07:19 85° SW 11:17:06 10° SE daylight
06 Feb - 13:03:43 10° WNW 13:11:30 29° SW 13:19:30 10° S daylight
07 Feb - 02:18:34 10° SSE 02:24:36 19° SE 02:30:34 10° E visible
07 Feb - 04:19:04 10° SW 04:28:17 68° SE 04:37:31 10° ENE visible
07 Feb - 06:24:23 10° W 06:33:33 60° NNW 06:42:51 10° ENE visible
07 Feb - 08:30:46 10° WNW 08:39:52 54° N 08:49:11 10° E daylight
07 Feb - 10:36:09 10° WNW 10:45:36 88° SW 10:55:22 10° SE daylight
07 Feb - 12:41:55 10° WNW 12:49:51 31° SW 12:58:01 10° S daylight
